全球星 M040星 (GLOBALSTAR M040)

导读

GLOBALSTAR M040是美国全球星系统的第一代低轨移动通信卫星,于1999年2月9日发射升空,归属全球星(GLOB)系统运营。作为全球星星座组网成员,它运行在约1414千米高度的近地轨道,采用三轴稳定设计,配备16个点波束与透明转发器,可提供数字语音、数据、短信息及漫游通信服务,是全球星实现中低纬度区域无缝移动通信覆盖的重要组成部分。

Basic Information
目录编号:
25622
目录名称:
GLOBALSTAR M040
国际标识:
1999-004B
轨道中心:
EARTH
卫星名称:
全球星 M040星
卫星全名:
全球星 M040星 (GLOBALSTAR M040)
卫星状态:
在轨 (已飞行10076 天)
发射日期:
1999-02-09 UTC
国别 :
(GLOB)
星等 :
--
This satellite is enrolled in the Space Conjunction Data Service (SCDS) and the current flight risk assessment level is: No High Risk
Orbit Information
数据来源 国际轨道数据 AOE轨道数据
星历时间 2026-09-10T16:46:23+0800
22小时前
查看轨道信息
2026-09-10T22:00:00+0800
17小时前
查看轨道信息
半长轴 7792.679km 7792.681km
偏心率 0.0000675 0.0000123
轨道倾角 51.991° 51.990°
近地点辐角 0.916° 49.956°
升交点赤经 127.422° 126.761°
平近点角 170.524° 31.467°
近地点 1414.015km 1414.448km
远地点 1415.069km 1414.64km
周期 114.101分钟 114.101分钟
每日圈数 12.620386 12.62038
Detailed Information
固有亮度:
5
最大亮度:
7.9
平衡模式:
三轴稳定
覆盖范围:
全球
运营商:
全球星公司
运营商所在国:
美国
使用方式:
暂无
Satellite Introduction
全球星星座由48颗卫星加8颗备份星组成。这些卫星分布在8个倾角为52度的圆形轨道平面上,每个轨道平面6颗卫星,另有1 颗备用星。轨道高度约为1414km,传输时延和处理时延小于300ms,整个系统的覆盖区为南北纬70度以内的地区。该卫星仍在工作。
2D Orbit Map
3D Orbit Map
Orbit Altitude Analysis Chart
Orbit Inclination Analysis Chart
Orbit Comprehensive Analysis Chart
View Comprehensive Chart
Conjunction Data List
Event ID Objects TCA Miss Dist (km) Collision Risk Probability Collision Risk Index (CRI) Action
CDM_260904-210500-997502-562225
2026-09-04T
21:05:15+0000
1.000 km
极远距离
2.019445E-5 中风险 0.61
CDM_260912-032402-103402-562225
2026-09-12T
03:24:22+0000
1.339 km
极远距离
8.93367E-6 低风险 0.54
Miss Distance Evolution Trend with All Objects
Collision Probability Evolution Trend with All Objects